Location: Unspecified
(32.6095°N, 0.0000°E)
Time: 21:42:32
(UTC+00:00)

Envisat - Pass Details

Date: 24 May 2019
Orbit: 764 x 766 km, 98.1° (Epoch: 24 June)

Event Time Altitude Azimuth Distance (km) Brightness Sun altitude
Rises 19:36:21 0° 203° (SSW) 3,217 6.1 -8.0°
Reaches altitude 10° 19:39:16 10° 220° (SW) 2,296 5.6 -8.5°
Maximum altitude 19:42:50 19° 265° (W) 1,751 5.6 -9.2°
Drops below altitude 10° 19:46:25 10° 311° (NW) 2,305 7.1 -9.8°
Sets 19:49:22 0° 328° (NNW) 3,236 7.5 -10.3°
